[[{"header":{"parameterUnit":"m.s-1","parameterCategory":1,"la1":30.2991,"la2":30.254,"lo1":-89.0895,"lo2":-89.0444,"dy":0.0017,"dx":0.0017,"nx":28,"ny":28,"refTime":"2025-08-17T03:00:00:Z","depth":0,"parameterNumber":2,"parameterNumberName":"U-component_of_WINDS"},"data":[0,0,0,0,0,0,0,0,0,0,0,0,0,0,0,0,0,0,0,0,0,0,0,0,0,0,0,0,0,0,0,0,0,0,0,0,0,0,0,0,0,0,0,0,0,0,0,0,0,0,0,0,0,0,0,0,0,0,-0.8466,-0.8467,0,-0.8539,-0.854,-0.8541,-0.8516,-0.8514,-0.8512,-0.8511,-0.8588,-0.8592,-0.8595,0,0,0,0,0,0,0,0,0,0,0,0,0,-0.8306,-0.8309,-0.8466,-0.8467,-0.8468,-0.8539,-0.854,-0.8541,-0.8516,-0.8514,-0.8512,-0.851,-0.8587,-0.8591,-0.8596,0,0,0,0,0,0,0,0,0,0,0,0,0,-0.8377,-0.831,-0.8466,-0.8464,-0.8464,-0.8539,-0.854,-0.8542,-0.8516,-0.8514,-0.8511,-0.8509,-0.8586,-0.8591,-0.8596,-0.8678,0,0,-0.8613,-0.8615,0,0,0,0,0,0,0,0,-0.8373,-0.8383,-0.8463,-0.8464,-0.8465,-0.8516,-0.8512,-0.8588,-0.8517,-0.8497,-0.8511,-0.8508,-0.8566,-0.8573,-0.8592,-0.8682,-0.8685,-0.8613,-0.8616,-0.8619,-0.862,0,0,0,0,0,0,0,-0.8368,-0.8379,-0.8495,-0.8464,-0.8465,-0.846,-0.8467,-0.8526,-0.8544,-0.8498,-0.8496,-0.8505,-0.8566,-0.8587,-0.8594,-0.8686,-0.8613,-0.8618,-0.8621,-0.8623,-0.8848,-0.885,0,0,0,0,0,0,-0.8362,-0.8375,-0.8493,-0.8497,-0.8412,-0.8464,-0.8473,-0.8502,-0.8544,-0.8548,-0.8507,-0.8504,-0.8579,-0.8588,-0.8597,-0.8697,-0.8619,-0.8624,-0.8627,-0.8845,-0.8848,-0.8851,0,0,0,0,0,0,-0.8359,-0.8373,-0.849,-0.8436,-0.845,-0.847,-0.8503,-0.8505,-0.8526,-0.8551,-0.8554,-0.8525,-0.8578,-0.8589,-0.8658,-0.8699,-0.8626,-0.8631,-0.8842,-0.8846,-0.885,-0.8897,0,0,0,0,0,0,-0.8354,-0.8372,-0.8403,-0.8437,-0.8453,-0.855,-0.8505,-0.8508,-0.8535,-0.8531,-0.8568,-0.8572,-0.8577,-0.865,-0.8664,-0.8705,-0.8635,-0.8838,-0.8844,-0.8848,-0.8892,-0.8902,-0.8911,0,0,0,0,0,-0.8349,-0.8414,-0.8405,-0.8419,-0.8493,-0.8552,-0.8562,-0.8565,-0.8538,-0.857,-0.8586,-0.8571,-0.8691,-0.8658,-0.8672,-0.8716,-0.8836,-0.8842,-0.8848,-0.8887,-0.89,-0.891,0,0,0,0,0,0,-0.8386,-0.8418,-0.8409,-0.8486,-0.8517,-0.8548,-0.8589,-0.8578,-0.8617,-0.8612,-0.8615,-0.8623,-0.8695,-0.8712,-0.8673,-0.8798,-0.876,-0.8769,-0.8785,-0.8797,-0.8806,-0.8801,-0.864,0,0,0,0,0,-0.8402,-0.8448,-0.8474,-0.854,-0.8555,-0.8569,-0.8595,-0.8595,-0.8627,-0.864,-0.8661,-0.8693,-0.8738,-0.8768,-0.881,-0.8893,-0.8901,-0.893,-0.8939,-0.8947,-0.8956,-0.9002,-0.9015,-0.8871,-0.8871,-0.8871,0,0,-0.8439,-0.8462,-0.8491,-0.8548,-0.8571,-0.8619,-0.858,-0.8632,-0.8668,-0.8648,-0.8715,-0.8731,-0.8767,-0.8843,-0.8878,-0.886,-0.8997,-0.8955,-0.8961,-0.8966,-0.9009,-0.9023,-0.9035,-0.8876,-0.8875,-0.8874,0,0,-0.8529,-0.855,-0.8608,-0.8632,-0.8668,-0.8676,-0.869,-0.8722,-0.8732,-0.8799,-0.8785,-0.8827,-0.8905,-0.8931,-0.8955,-0.9053,-0.9042,-0.9067,-0.9118,-0.9162,-0.9174,-0.9184,-0.922,-0.9233,-0.9075,-0.9075,-0.9075,0,-0.857,-0.864,-0.864,-0.8693,-0.8719,-0.8701,-0.876,-0.8784,-0.8832,-0.885,-0.8828,-0.8925,-0.8948,-0.9031,-0.9055,-0.9074,-0.909,-0.9064,-0.9172,-0.9182,-0.9191,-0.9226,-0.924,-0.9078,-0.9078,-0.9078,-0.9077,0,-0.8689,-0.8738,-0.8781,-0.8827,-0.8857,-0.8913,-0.8921,-0.8952,-0.8948,-0.8959,-0.9028,-0.9054,-0.9102,-0.9121,-0.9118,-0.9203,-0.9191,-0.917,-0.9133,-0.9208,-0.9241,-0.9255,-0.9083,-0.9081,-0.9081,-0.908,0,0,-0.8808,-0.8851,-0.8867,-0.8888,-0.8925,-0.8963,-0.9018,-0.9064,-0.9091,-0.9124,-0.9171,-0.9236,-0.9217,-0.9244,-0.9243,-0.9282,-0.936,-0.9257,-0.9257,-0.9277,-0.9457,-0.9474,-0.949,-0.9351,-0.9354,-0.9356,-0.9455,0,-0.8903,-0.8999,-0.8999,-0.9088,-0.9134,-0.9117,-0.9164,-0.9193,-0.9204,-0.9245,-0.9257,-0.9304,-0.9274,-0.929,-0.9327,-0.9343,-0.9397,-0.9335,-0.9397,-0.9399,-0.9391,-0.9507,-0.9525,-0.9618,-0.9468,-0.947,-0.9471,0,-0.9027,-0.9063,-0.9157,-0.9187,-0.9206,-0.9249,-0.9291,-0.933,-0.9361,-0.9367,-0.9396,-0.9389,-0.9446,-0.9404,-0.9482,-0.944,-0.9465,-0.9476,-0.948,-0.9488,-0.9442,-0.952,-0.9647,-0.9662,-0.9491,-0.949,-0.9488,0,-0.9107,-0.9179,-0.9244,-0.9262,-0.9298,-0.9329,-0.9346,-0.9374,-0.9402,-0.9439,-0.9457,-0.95,-0.9524,-0.9557,-0.9563,-0.9531,-0.9642,-0.96,-0.9649,-0.9649,-0.9676,-0.9674,-0.9811,-0.9687,-0.9687,-0.9687,-0.9687,0,-0.9214,-0.9273,-0.928,-0.9321,-0.9385,-0.9385,-0.9449,-0.9463,-0.9489,-0.9532,-0.9519,-0.956,-0.9563,-0.9606,-0.961,-0.9675,-0.9685,-0.9692,-0.9693,-0.9695,-0.9694,-0.9713,-0.9708,-0.9691,-0.969,-0.9689,-0.9688,0,-0.9315,-0.9323,-0.9393,-0.9421,-0.9429,-0.9476,-0.95,-0.9539,-0.9547,-0.9603,-0.9615,-0.963,-0.9679,-0.9686,-0.9744,-0.9747,-0.9825,-0.9818,-0.9815,-0.9815,-0.9864,-0.986,-1.0019,-1.0041,-0.9901,-0.9903,-0.9904,0,-0.9385,-0.9429,-0.9462,-0.9489,-0.9507,-0.9552,-0.958,-0.958,-0.961,-0.9648,-0.9683,-0.973,-0.9769,-0.9848,-0.9864,-0.9908,-0.9903,-0.9956,-0.991,-0.991,-0.9907,-0.9905,-0.991,-0.9966,-0.9967,-0.9968,-0.9969,0,-0.9509,-0.9509,-0.955,-0.9591,-0.9624,-0.9657,-0.9688,-0.9712,-0.9716,-0.975,-0.9799,-0.9829,-0.9887,-0.9935,-0.9978,-0.9996,-0.9984,-0.9983,-0.9997,-1.0001,-0.9998,-1.0002,-0.9842,-0.998,-0.9979,-0.9978,-0.9978,-0.9977,-0.9598,-0.9637,-0.9665,-0.971,-0.9733,-0.9762,-0.98,-0.9813,-0.9854,-0.9901,-0.9899,-0.9954,-0.9983,-1.004,-1.006,-1.0104,-1.0087,-1.0107,-1.0112,-1.0118,-1.0124,-0.9988,-1.0111,-1.0111,-1.0111,-1.011,-1.011,0,-0.9722,-0.9739,-0.9781,-0.9824,-0.986,-0.9843,-0.9876,-0.9908,-0.9956,-0.9984,-1.0021,-1.0078,-1.0124,-1.0143,-1.0188,-1.0219,-1.0215,-1.0231,-1.023,-1.0234,-1.0135,-1.0119,-1.0233,-1.0233,-1.0233,-1.0233,-1.0233,-1.0233,-0.9792,-0.9857,-0.9861,-0.9937,-0.9954,-1.0007,-1.0028,-1.0054,-1.0077,-1.0141,-1.0178,-1.019,-1.0214,-1.0261,-1.0302,-1.0306,-1.0325,-1.0344,-1.0346,-1.0254,-1.0241,-1.023,-1.0215,-1.0347,-1.0347,-1.0442,-1.0443,-1.0444]},{"header":{"parameterUnit":"m.s-1","parameterCategory":1,"la1":30.2991,"la2":30.254,"lo1":-89.0895,"lo2":-89.0444,"dy":0.0017,"dx":0.0017,"nx":28,"ny":28,"refTime":"2025-08-17T03:00:00:Z","depth":0,"parameterNumber":3,"parameterNumberName":"V-component_of_WINDS"},"data":[0,0,0,0,0,0,0,0,0,0,0,0,0,0,0,0,0,0,0,0,0,0,0,0,0,0,0,0,0,0,0,0,0,0,0,0,0,0,0,0,0,0,0,0,0,0,0,0,0,0,0,0,0,0,0,0,0,0,-2.2825,-2.2825,0,-2.2847,-2.2847,-2.2847,-2.2812,-2.2811,-2.281,-2.2809,-2.2828,-2.283,-2.2831,0,0,0,0,0,0,0,0,0,0,0,0,0,-2.2751,-2.2753,-2.2825,-2.2825,-2.2826,-2.2847,-2.2847,-2.2847,-2.2812,-2.2811,-2.281,-2.2808,-2.2828,-2.283,-2.2832,0,0,0,0,0,0,0,0,0,0,0,0,0,-2.2779,-2.2753,-2.2825,-2.2811,-2.281,-2.2847,-2.2847,-2.2847,-2.2813,-2.2811,-2.2809,-2.2807,-2.2827,-2.2829,-2.2832,-2.2883,0,0,-2.2839,-2.284,0,0,0,0,0,0,0,0,-2.2777,-2.2782,-2.2813,-2.2812,-2.2811,-2.2825,-2.2828,-2.2859,-2.2813,-2.2812,-2.2809,-2.2807,-2.2828,-2.2831,-2.2839,-2.2884,-2.2885,-2.284,-2.2841,-2.2842,-2.2843,0,0,0,0,0,0,0,-2.2776,-2.2781,-2.2834,-2.2813,-2.2812,-2.2803,-2.2805,-2.2834,-2.283,-2.2812,-2.2809,-2.2812,-2.2828,-2.2836,-2.2839,-2.2885,-2.284,-2.2842,-2.2843,-2.2844,-2.2972,-2.2974,0,0,0,0,0,0,-2.2776,-2.2779,-2.2833,-2.2834,-2.2789,-2.2805,-2.2808,-2.2822,-2.2829,-2.2829,-2.2814,-2.2811,-2.2833,-2.2836,-2.2839,-2.2899,-2.2842,-2.2844,-2.2846,-2.297,-2.2973,-2.2975,0,0,0,0,0,0,-2.2774,-2.2781,-2.2832,-2.2806,-2.2812,-2.2809,-2.2825,-2.2824,-2.2832,-2.2831,-2.283,-2.2824,-2.2832,-2.2836,-2.2872,-2.2899,-2.2846,-2.2848,-2.2968,-2.2971,-2.2974,-2.3019,0,0,0,0,0,0,-2.2772,-2.2781,-2.28,-2.2807,-2.2813,-2.2866,-2.2827,-2.2825,-2.2837,-2.2833,-2.284,-2.2839,-2.2831,-2.2869,-2.2875,-2.2902,-2.285,-2.2966,-2.297,-2.2973,-2.3015,-2.3023,-2.303,0,0,0,0,0,-2.277,-2.2812,-2.2802,-2.2808,-2.2838,-2.2867,-2.2871,-2.2861,-2.2839,-2.2859,-2.2858,-2.2839,-2.2896,-2.2873,-2.2879,-2.2907,-2.2964,-2.2968,-2.2973,-2.3012,-2.3022,-2.303,0,0,0,0,0,0,-2.2808,-2.2812,-2.2801,-2.2847,-2.2857,-2.2861,-2.2886,-2.2871,-2.2887,-2.2883,-2.2869,-2.2871,-2.291,-2.2912,-2.2887,-2.2957,-2.2926,-2.2932,-2.2954,-2.2963,-2.297,-2.2969,-2.2852,0,0,0,0,0,-2.2821,-2.2845,-2.2848,-2.2888,-2.2894,-2.2889,-2.2901,-2.2893,-2.2902,-2.2906,-2.2908,-2.2917,-2.2937,-2.295,-2.2968,-2.3016,-2.3016,-2.3038,-2.3046,-2.3052,-2.3057,-2.3081,-2.3091,-2.2989,-2.2989,-2.2989,0,0,-2.285,-2.2855,-2.2871,-2.2896,-2.2902,-2.2927,-2.2893,-2.292,-2.2937,-2.291,-2.2944,-2.2946,-2.2956,-2.2998,-2.3016,-2.3001,-2.3085,-2.3057,-2.3062,-2.3064,-2.3087,-2.3096,-2.3105,-2.2992,-2.2992,-2.2991,0,0,-2.2914,-2.2921,-2.2955,-2.2963,-2.2974,-2.2971,-2.2979,-2.2986,-2.2986,-2.3021,-2.3001,-2.3021,-2.3055,-2.3063,-2.3071,-2.3139,-2.3122,-2.3145,-2.3184,-2.3208,-2.3216,-2.3223,-2.3247,-2.3255,-2.315,-2.315,-2.315,0,-2.2947,-2.2984,-2.2974,-2.3003,-2.3013,-2.2991,-2.3025,-2.3032,-2.3049,-2.3056,-2.3039,-2.3082,-2.3087,-2.313,-2.3147,-2.3155,-2.3163,-2.3144,-2.3216,-2.3223,-2.3229,-2.3252,-2.326,-2.3153,-2.3153,-2.3153,-2.3152,0,-2.3024,-2.305,-2.3076,-2.3093,-2.3107,-2.3138,-2.3132,-2.3147,-2.3138,-2.3136,-2.3172,-2.3177,-2.3195,-2.3205,-2.3196,-2.3247,-2.3237,-2.3218,-2.3187,-2.3242,-2.3262,-2.3271,-2.3157,-2.3156,-2.3155,-2.3155,0,0,-2.3112,-2.3124,-2.3134,-2.3141,-2.3152,-2.3172,-2.3201,-2.3221,-2.3234,-2.3246,-2.327,-2.33,-2.3283,-2.3292,-2.3283,-2.3305,-2.3357,-2.3283,-2.3283,-2.3296,-2.3414,-2.3428,-2.3438,-2.3347,-2.3348,-2.3349,-2.3413,0,-2.3176,-2.3228,-2.322,-2.327,-2.3293,-2.3272,-2.3298,-2.3307,-2.3307,-2.3326,-2.3324,-2.3346,-2.3322,-2.3327,-2.3348,-2.3347,-2.3381,-2.3342,-2.3368,-2.3369,-2.3366,-2.3449,-2.3463,-2.3523,-2.3421,-2.3422,-2.3423,0,-2.3256,-2.3273,-2.3326,-2.3333,-2.3342,-2.3366,-2.3383,-2.3402,-2.3411,-2.3409,-2.342,-2.3408,-2.3437,-2.3406,-2.3445,-2.3419,-2.3429,-2.343,-2.3432,-2.3434,-2.3399,-2.3451,-2.3542,-2.355,-2.3436,-2.3435,-2.3434,0,-2.3314,-2.3349,-2.3386,-2.3393,-2.3403,-2.342,-2.3424,-2.3432,-2.3444,-2.3459,-2.3467,-2.3484,-2.3493,-2.3507,-2.3499,-2.3477,-2.354,-2.3508,-2.3538,-2.3538,-2.3551,-2.355,-2.3643,-2.3559,-2.3559,-2.3559,-2.3559,0,-2.3386,-2.3419,-2.3412,-2.3434,-2.347,-2.346,-2.3496,-2.3498,-2.3506,-2.3527,-2.351,-2.353,-2.3519,-2.3538,-2.3532,-2.3565,-2.357,-2.3568,-2.3566,-2.357,-2.357,-2.3575,-2.3571,-2.3561,-2.3561,-2.356,-2.356,0,-2.3456,-2.3453,-2.3491,-2.3498,-2.35,-2.3526,-2.3531,-2.3552,-2.355,-2.3578,-2.3583,-2.358,-2.3602,-2.3596,-2.3619,-2.3615,-2.3657,-2.365,-2.3654,-2.3652,-2.3682,-2.3679,-2.3781,-2.3794,-2.3702,-2.3703,-2.3704,0,-2.3502,-2.3527,-2.3536,-2.355,-2.3556,-2.3579,-2.3591,-2.3582,-2.3596,-2.3609,-2.3628,-2.3648,-2.3664,-2.37,-2.3699,-2.3717,-2.371,-2.3744,-2.3712,-2.3715,-2.3709,-2.3708,-2.371,-2.3751,-2.3752,-2.3752,-2.3753,0,-2.3582,-2.358,-2.3599,-2.3618,-2.3634,-2.3648,-2.366,-2.3672,-2.3664,-2.368,-2.3703,-2.3715,-2.374,-2.376,-2.3776,-2.378,-2.3765,-2.3764,-2.3771,-2.3774,-2.3776,-2.3775,-2.3671,-2.3761,-2.376,-2.376,-2.3759,-2.3759,-2.3641,-2.3662,-2.3673,-2.3695,-2.3703,-2.3715,-2.3735,-2.3736,-2.3755,-2.3775,-2.3768,-2.3794,-2.3803,-2.3823,-2.3829,-2.3849,-2.3835,-2.3847,-2.385,-2.3852,-2.3856,-2.3773,-2.3852,-2.3852,-2.3851,-2.3851,-2.3851,0,-2.372,-2.3726,-2.3747,-2.3765,-2.3782,-2.3768,-2.3781,-2.3796,-2.3819,-2.3829,-2.3846,-2.3871,-2.3891,-2.3893,-2.3911,-2.3926,-2.392,-2.3931,-2.3929,-2.393,-2.3867,-2.3858,-2.3936,-2.3936,-2.3936,-2.3936,-2.3936,-2.3936,-2.3764,-2.3799,-2.3797,-2.3836,-2.3842,-2.3868,-2.3876,-2.3887,-2.3895,-2.3925,-2.3942,-2.3943,-2.3949,-2.3968,-2.3985,-2.3985,-2.3992,-2.4006,-2.4003,-2.3943,-2.3935,-2.3927,-2.3919,-2.4008,-2.4008,-2.4065,-2.4065,-2.4066]}]]